JE3XST-13 Weather Reports


time (UTC)temp
C
wind
direction
speed
KPH
gust
KPH
rain 1hr
cm
rain 24hr
cm
rain mn
cm
humidity
%
barometer
mb
20260504081518 15 298 1.6 11.3 0.03 2.97 0.51 79 1009.4
20260504044518 21 235 11.3 16.1 0.00 3.00 0.41 53 1005.3
20260504041518 20 201 9.7 22.5 0.00 3.00 0.41 55 1005.2
20260504034517 20 264 14.5 20.9 0.00 3.00 0.41 56 1005.1
20260504031518 21 266 9.7 29.0 0.00 3.00 0.41 53 1004.7
20260504024518 22 275 20.9 27.4 0.00 3.00 0.41 50 1004.0
20260504021517 21 244 9.7 22.5 0.00 3.00 0.41 52 1004.3
20260504014517 21 248 11.3 22.5 0.00 3.00 0.41 53 1004.5
20260504011517 21 231 16.1 20.9 0.00 3.00 0.41 56 1004.6
20260504004518 20 279 9.7 22.5 0.00 3.00 0.41 62 1004.8
20260504001517 20 252 4.8 12.9 0.00 3.00 0.41 65 1004.6
20260503234517 19 198 8.0 14.5 0.00 3.00 0.41 70 1004.3
20260503231516 18 255 4.8 11.3 0.00 3.00 0.41 73 1004.0
20260503224517 18 158 4.8 9.7 0.00 3.00 0.41 77 1003.8
20260503221517 18 176 9.7 12.9 0.00 3.00 0.41 78 1003.4
20260503214517 17 181 9.7 14.5 0.00 3.00 0.41 80 1002.9
20260503211516 17 135 3.2 9.7 0.00 3.00 0.41 83 1002.5
20260503204516 17 179 8.0 12.9 0.00 3.00 0.41 87 1002.0
20260503201517 17 198 8.0 14.5 0.03 3.00 0.41 93 1001.7
20260503194518 17 158 11.3 20.9 0.03 3.00 0.41 95 1001.3
20260503191516 17 117 1.6 1.6 0.00 2.97 0.38 96 1001.3
20260503184516 17 271 0.0 8.0 0.23 2.97 0.38 96 1000.6
20260503181517 17 177 1.6 4.8 0.23 2.97 0.38 96 1000.4
20260503174518 18 114 0.0 0.0 0.03 2.77 0.15 97 1000.0
20260503171518 18 115 0.0 0.0 0.00 2.74 0.15 97 999.3